EHI
0 0 0 0 0 0 0 0 1 2 2 1 0 0 0 0 0 0 0 0 0 0 0 0 0 0 0 0 0 0 0 0 0 0 0 0 0 0 0 0 0 0 0
0 0 0 0 0 0 0 0 1 2 2 1 0 0 0 0 0 0 0 0 0 0 0 0 0 0 0 0 0 0 0 0 0 0 0 0 0 0 0 0 0 0 0
0 0 0 0 0 0 0 0 0 1 1 0 0 0 0 0 0 0 0 0 0 0 0 0 0 0 0 0 0 0 0 0 0 0 0 0 0 0 0 0 0 0 0
0 0 0 0 0 0 0 0 0 0 0 0 0 0 0 0 0 0 0 0 0 0 0 0 0 0 0 0 0 0 0 0 0 0 0 0 0 0 0 0 0 0 0
0 0 0 0 0 0 0 0 0 0 0 0 0 0 0 0 0 0 0 0 0 0 0 0 0 0 0 0 0 0 0 0 0 0 0 0 0 0 0 0 0 0 0
0 0 0 0 0 0 0 0 0 0 0 0 0 0 0 0 0 0 0 0 0 0 0 0 0 0 0 0 0 0 0 0 0 0 0 0 0 0 0 0 0 0 0
0 0 0 0 0 0 0 0 0 0 0 0 0 0 0 0 0 0 0 0 0 0 0 0 0 0 0 0 0 0 0 0 0 0 0 0 0 0 0 0 0 0 0
0 0 0 0 0 0 0 0 0 0 0 0 0 0 0 0 0 0 0 0 0 0 0 0 0 0 0 0 0 0 0 0 0 0 0 0 0 0 0 0 0 0 0
0 0 0 0 0 0 0 0 0 0 0 0 0 0 0 0 0 0 0 0 0 0 0 0 0 0 0 0 0 0 0 0 0 0 0 0 0 0 0 0 0 0 0
0 0 0 0 0 0 0 0 0 0 0 0 0 0 0 0 0 0 0 0 0 0 0 0 0 0 0 0 0 0 0 0 0 0 0 0 0 0 0 0 0 0 0
0 0 0 0 0 0 0 0 0 0 0 0 0 0 0 0 0 0 0 0 0 0 0 0 0 0 0 0 0 0 0 0 0 0 0 0 0 0 0 0 0 0 0
0 0 0 0 0 0 0 0 0 0 0 0 0 0 0 0 0 0 0 0 0 0 0 0 0 0 0 0 0 0 0 0 0 0 0 0 0 0 0 0 0 0 0
0 0 0 0 0 0 0 0 0 0 0 0 0 0 0 0 0 0 0 0 0 0 0 0 0 0 0 0 0 0 0 0 0 0 0 0 0 0 0 0 0 0 0
0 0 0 0 0 0 0 0 0 0 0 0 0 0 0 0 0 0 0 0 0 0 0 0 0 0 0 0 0 0 0 0 0 0 0 0 0 0 0 0 0 0 0
0 0 0 0 0 0 0 0 0 0 0 0 0 0 0 0 0 0 0 0 0 0 0 0 0 0 0 0 0 0 0 0 0 0 0 0 0 0 0 0 0 0 0
0 0 0 0 0 0 0 0 0 0 0 0 0 0 0 0 0 0 0 0 0 0 0 0 0 0 0 0 0 0 0 0 0 0 0 0 0 0 0 0 0 0 0
0 0 0 0 0 0 0 0 0 0 0 0 0 0 0 0 0 0 0 0 0 0 0 0 0 0 0 0 0 0 0 0 0 0 0 0 0 0 0 0 0 0 0
0 0 0 0 0 0 0 0 0 0 0 0 0 0 0 0 0 0 0 0 0 0 0 0 0 0 0 0 0 0 0 0 0 0 0 0 0 0 0 0 0 0 0
0 0 0 0 0 0 0 0 0 0 0 0 0 0 0 0 0 0 0 0 0 0 0 0 0 0 0 0 0 0 0 0 0 0 0 0 0 0 0 0 0 0 0
0 0 0 0 0 0 0 0 0 0 0 0 0 0 0 0 0 0 0 0 0 0 0 0 0 0 0 0 0 0 0 0 0 0 0 0 0 0 0 0 0 0 0
0 0 0 0 0 0 0 0 0 0 0 0 0 0 0 0 0 0 0 0 0 0 0 0 0 0 0 0 0 0 0 0 0 0 0 0 0 0 0 0 0 0 0
0 0 0 0 0 0 0 0 0 0 0 0 0 0 0 0 0 0 0 0 0 0 0 0 0 0 0 0 0 0 0 0 0 0 0 0 0 0 0 0 0 0 0
0 0 0 0 0 0 0 0 0 0 0 0 0 0 0 0 0 0 0 0 0 0 0 0 0 0 0 0 0 0 0 0 0 0 0 0 0 0 0 0 0 0 0
0 0 0 0 0 0 0 0 0 0 0 0 0 0 0 0 0 0 0 0 0 0 0 0 0 0 0 0 0 0 0 0 0 0 0 0 0 0 0 0 0 0 0
0 0 0 0 0 0 0 0 0 0 0 0 0 0 0 0 0 0 0 0 0 0 0 0 0 0 0 0 0 0 0 0 0 0 0 0 0 0 0 0 0 0 0
0 0 0 0 0 0 0 0 0 0 0 0 0 0 0 0 0 0 0 0 0 0 0 0 0 0 0 0 0 0 0 0 0 0 0 0 0 0 0 0 0 0 0
Wind_Speed
3 1 1 1 1 1 1 2 2 1 2 2 2 2 2 1 1 1 1 1 2 2 3 2 2 2 2 3 4 3 3 2 1 2 2 1 1 2 1 1 1 2 2
3 1 1 1 1 2 2 2 2 2 2 2 2 2 2 1 1 1 1 1 2 2 2 3 2 2 2 3 3 3 2 1 1 2 2 1 1 2 1 1 1 1 1
4 3 2 2 1 2 2 2 2 2 2 2 2 2 1 1 1 1 1 1 2 2 2 3 3 2 3 3 3 3 4 3 1 1 2 3 2 1 1 1 1 1 1
3 2 2 2 2 2 2 2 2 1 1 2 3 4 3 2 2 2 1 1 2 2 2 3 3 3 2 3 3 2 2 4 3 1 1 1 3 2 1 1 1 1 1
3 2 3 3 2 2 1 1 1 1 1 2 3 4 3 2 1 1 2 1 1 2 2 2 3 3 3 3 3 2 2 2 3 2 1 1 1 1 2 1 1 2 1
2 2 2 2 2 1 1 1 0 1 1 2 3 4 4 3 3 2 2 2 1 1 2 2 3 3 3 3 3 3 2 2 2 2 2 2 2 2 2 2 2 2 2
1 2 2 2 2 2 1 1 1 1 1 2 2 3 4 4 5 4 3 3 2 2 3 3 3 3 3 3 3 3 3 3 3 3 2 2 2 2 1 2 1 1 2
2 2 2 2 3 2 2 2 2 2 2 2 2 2 3 3 3 3 3 4 3 3 3 4 3 3 3 3 3 3 3 3 3 3 3 2 2 1 2 2 2 1 1
3 3 3 2 3 3 3 2 2 2 2 2 2 2 3 3 3 3 3 3 3 3 3 4 4 3 3 4 4 3 4 3 4 3 3 3 2 2 2 2 3 3 2
3 3 3 3 3 2 3 3 2 2 3 2 3 3 3 3 3 3 3 3 3 3 3 4 4 4 4 4 3 3 3 4 4 3 3 3 2 2 2 2 2 2 3
4 4 4 3 3 2 2 3 3 2 2 3 3 3 3 2 2 3 4 4 3 3 4 4 4 4 4 4 4 4 4 4 4 3 4 4 4 3 3 2 2 2 3
4 4 4 3 3 3 3 3 3 3 3 3 3 3 3 3 3 3 4 4 4 4 4 4 4 4 4 4 5 5 5 5 5 5 5 4 3 4 4 3 4 3 3
5 4 4 4 4 4 4 4 4 4 3 3 3 3 3 3 4 4 3 3 4 4 4 4 4 4 4 4 5 5 5 6 6 5 6 6 5 5 4 4 4 3 3
5 5 5 4 4 4 4 4 5 4 3 2 2 3 3 4 3 3 3 3 3 4 4 4 4 4 4 5 5 5 5 5 5 6 6 6 6 6 6 5 5 4 3
5 5 5 5 4 4 4 4 4 4 3 2 3 3 3 3 2 2 3 3 3 4 4 4 4 4 4 5 5 5 5 5 5 5 6 6 8 8 7 5 5 5 4
6 6 5 5 5 5 5 5 5 4 3 2 3 3 3 3 2 2 2 2 3 3 3 4 4 4 4 6 9 7 5 5 6 5 5 6 7 8 10 10 9 8 7
6 6 6 5 5 5 5 5 4 4 3 3 3 3 3 3 3 2 2 3 3 3 4 4 4 5 6 8 9 9 6 5 6 6 5 5 5 7 6 8 9 9 11
6 6 6 6 5 4 4 4 3 3 3 3 3 3 3 3 2 2 3 3 2 3 3 3 4 4 5 8 9 9 6 6 6 6 6 6 6 6 6 6 6 6 7
5 5 5 5 4 4 4 3 3 3 3 3 3 3 3 3 2 3 3 2 2 3 3 3 3 4 5 7 8 8 5 5 6 6 6 6 6 9 9 7 7 6 6
4 4 4 4 4 4 3 2 3 3 3 4 4 3 3 3 3 3 3 2 2 3 3 3 3 4 5 7 8 8 4 5 5 5 6 9 9 10 10 7 7 7 6
4 4 3 3 4 3 3 3 3 4 5 4 4 3 3 3 3 3 2 2 2 2 2 3 3 4 5 6 8 8 4 4 4 4 4 5 10 11 10 9 7 8 6
5 4 3 4 4 3 2 3 4 5 4 4 3 3 3 3 2 2 2 2 2 2 3 3 3 3 4 5 7 9 9 7 5 4 4 4 9 10 10 8 8 8 6
4 4 3 4 4 3 2 3 5 4 4 4 4 3 3 3 2 2 2 2 2 2 2 3 3 3 3 4 7 9 9 9 6 4 7 7 8 8 7 8 7 5 3
4 3 3 4 4 4 4 4 4 3 3 3 3 3 3 3 2 1 2 2 2 2 3 3 3 3 3 3 3 4 4 6 6 4 5 7 7 6 5 4 4 3 4
4 3 3 4 5 4 4 4 4 3 3 3 3 3 3 2 2 1 1 2 3 4 4 3 3 3 3 4 6 4 3 3 3 2 2 2 2 2 1 2 2 2 3
4 4 4 4 5 4 5 4 3 3 2 2 2 2 2 2 2 2 2 4 4 5 5 5 5 4 5 6 7 7 6 5 4 2 2 2 2 2 2 2 2 2 2
Wind_Direction
277 295 310 254 203 210 192 187 202 206 146 154 163 162 174 161 143 139 124 136 131 132 144 138 134 132 131 139 137 129 117 96 102 96 75 41 48 53 27 26 54 40 36
281 286 307 336 221 205 222 210 210 204 182 184 175 167 162 165 178 174 157 154 152 147 138 134 145 147 138 127 135 130 136 123 102 119 122 71 358 5 7 10 57 29 36
237 249 256 261 279 244 227 226 219 208 195 179 147 131 117 109 146 174 182 185 171 167 150 146 145 142 147 157 160 162 153 158 165 102 135 145 196 293 322 340 30 5 30
237 252 263 270 262 265 257 240 212 200 193 173 164 166 175 187 195 189 187 185 171 171 163 153 156 157 155 157 170 169 169 160 169 176 46 110 144 153 260 310 332 332 304
233 246 261 261 271 271 269 267 230 222 214 187 181 179 187 194 183 172 173 179 182 177 174 169 167 164 167 173 176 171 170 171 172 166 148 128 74 121 164 235 292 317 289
257 266 293 311 318 326 328 323 12 279 235 207 193 188 190 186 177 181 190 197 195 186 188 187 180 176 179 181 184 184 183 190 180 175 166 160 163 177 170 196 227 267 292
309 311 316 324 320 313 302 286 242 286 275 230 213 204 200 194 195 194 198 198 196 204 207 197 192 186 189 186 182 183 193 193 192 196 202 198 199 170 165 170 203 261 294
327 308 302 306 304 303 295 278 261 273 280 251 235 215 207 200 202 200 201 207 207 209 207 201 199 196 192 190 185 188 198 198 203 210 199 200 218 195 176 168 159 187 292
319 305 309 309 305 304 293 272 261 274 272 260 243 220 213 210 208 205 204 210 212 205 199 200 197 197 193 193 190 196 199 202 208 214 210 206 215 202 202 184 171 168 205
321 311 308 304 300 298 301 305 280 267 271 265 253 238 217 213 210 204 209 214 213 200 197 201 195 194 193 192 192 199 203 205 216 211 207 213 210 206 206 205 196 186 186
311 306 305 309 313 322 313 307 301 285 277 270 260 249 233 215 210 214 214 213 212 203 198 202 200 198 198 197 195 204 202 209 219 215 210 219 205 203 209 204 196 198 186
311 309 305 313 321 318 315 306 297 281 273 271 259 247 247 224 215 227 227 210 206 208 207 203 204 207 209 205 202 210 210 208 213 215 210 220 212 206 204 200 202 206 197
316 318 320 315 309 308 307 302 295 282 277 270 259 248 245 233 227 227 228 215 205 209 209 205 207 211 214 213 212 210 213 212 213 213 213 214 207 211 205 206 207 207 211
306 311 313 312 307 303 299 297 295 291 278 266 257 254 249 243 237 231 222 217 209 209 210 213 214 216 218 218 219 217 217 215 217 218 218 213 209 212 203 209 207 197 197
311 310 308 309 309 309 303 299 299 301 294 279 270 266 265 258 244 235 228 217 214 222 217 216 219 220 222 222 219 216 217 214 216 219 221 220 221 224 219 215 203 194 197
304 305 307 307 305 302 301 303 306 308 306 284 276 279 275 263 250 243 231 221 220 222 217 218 222 226 233 240 238 230 222 221 218 221 226 225 227 231 234 233 228 215 206
299 301 302 297 295 296 299 297 300 310 306 288 285 283 273 263 256 249 232 229 226 227 228 224 225 229 235 244 243 240 230 223 223 221 226 232 229 236 225 232 237 235 234
298 299 302 303 302 302 307 307 312 311 302 295 290 286 278 270 265 251 244 242 239 237 238 240 236 240 244 248 247 245 232 227 228 225 224 226 226 226 223 221 228 234 235
289 292 295 299 307 311 316 322 320 315 308 300 295 288 274 268 265 258 253 245 238 246 247 248 241 243 251 251 252 249 235 230 230 229 228 227 226 237 234 224 225 235 241
301 302 308 316 316 319 329 328 318 316 303 297 294 292 285 269 261 260 261 257 244 245 250 261 253 248 250 253 253 250 240 238 237 231 230 236 237 241 236 224 218 230 233
309 314 317 318 316 326 338 326 318 304 302 306 304 300 291 277 268 264 258 253 253 250 250 260 263 252 250 255 251 248 242 238 240 239 233 232 241 243 239 237 225 235 233
320 325 325 321 325 335 335 317 306 307 313 312 309 303 295 284 271 253 258 251 236 238 249 256 265 260 257 256 255 250 247 245 241 244 240 239 246 244 242 240 241 241 233
310 316 313 315 321 327 322 303 306 316 318 316 309 307 306 296 282 252 249 254 237 231 242 246 255 264 258 255 259 256 254 254 248 244 247 252 250 245 239 240 243 231 205
304 310 312 309 310 316 314 299 306 315 319 315 314 317 316 306 291 267 250 241 234 235 241 245 255 265 260 253 252 248 250 253 250 247 250 254 250 243 243 245 233 219 209
305 306 297 295 299 309 310 310 315 316 316 314 315 319 319 319 315 298 265 264 246 240 245 244 244 250 258 260 266 263 252 238 235 231 223 230 227 220 225 232 232 221 209
301 304 300 299 301 306 305 309 310 306 306 314 319 316 315 317 316 313 318 313 306 299 290 287 278 269 269 273 269 268 270 269 257 232 219 221 214 217 218 221 231 222 213